Latest Coastal Weather Observations for Truscott

IDW60701

Issued at 2:52 pm WST Sunday 1 March 2015 (issued every 10 minutes, with the page automatically refreshed every 10 minutes)

About coastal observations | Map of coastal stations | Coastal observations for WA | Marine services | Other Formats
Station Details ID: 001020 Name: TRUSCOTT Lat: -14.09 Lon: 126.39 Height: 51.0 m
Data from the previous 72 hours. | See also: Recent months at Truscott
Date/Time
WST
Temp

°C
Wind Pressure Rain
since 9am
mm
Weather Cloud Vis
km
Sea
Height
m
Swell
Dir
 
Speed
knots
Gust
knots
hPa Trend Height
m
Period
s
Dir
01/02:30pm 31.0 W 13 - 1004.0 - 0.0 - - 10 - - - -
01/02:00pm 32.0 W 13 - 1004.0 - 0.0 - Partly cloudy 10 - - - -
01/01:30pm 33.0 W 11 - 1004.0 - 0.0 - - 10 - - - -
01/01:00pm 32.0 WNW 12 - 1005.0 - 0.0 - - 10 - - - -
01/12:30pm 32.0 W 11 - 1005.0 - 0.0 - - 10 - - - -
01/12:00pm 32.0 W 10 16 1005.4 - 0.0 - Mostly clear 10 - - - -
01/11:30am 33.0 W 9 12 1006.0 - 0.0 - Partly cloudy 10 - - - -
01/11:00am 32.0 W 9 - 1007.0 - 0.0 - Partly cloudy 10 - - - -
01/10:30am 32.0 SSW 10 - 1007.0 - 0.0 - Partly cloudy 10 - - - -
01/10:00am 31.0 WSW 9 - 1008.0 - 0.0 - Partly cloudy 10 - - - -
01/09:30am 31.0 SW 9 - 1008.0 - 0.0 - Partly cloudy 10 - - - -
01/09:00am 31.0 SW 9 13 1007.7 - 0.0 - Partly cloudy 10 - - - -
01/08:30am 30.0 WSW 8 - 1008.0 - 0.0 - Partly cloudy 10 - - - -
01/08:00am 29.0 SW 8 - 1008.0 - 0.0 - - 10 - - - -
01/07:30am 29.0 SW 7 - 1008.0 - 0.0 - - 10 - - - -
01/07:00am 27.0 SW 5 - 1007.0 - 0.0 - - 10 - - - -
01/06:30am 26.0 SW 5 6 1007.0 - 0.0 - - 10 - - - -
01/06:00am 25.8 SW 5 - 1007.0 - 0.0 - - 9 - - - -
01/05:30am 26.0 SW 5 - 1006.0 - 0.0 - - 10 - - - -
01/05:00am 25.0 SSW 4 - 1006.0 - 0.0 - - 10 - - - -
01/04:56am 25.0 SSW 4 - 1006.0 - 0.0 - - 10 - - - -
01/04:44am 25.0 SSW 5 - 1006.0 - 0.0 - - 5 - - - -
01/04:30am 25.0 SW 4 - 1006.0 - 0.0 - - 10 - - - -
01/04:00am 25.0 SW 4 - 1005.0 - 0.0 - - 10 - - - -
01/03:30am 26.0 SW 4 - 1005.0 - 0.0 - - 10 - - - -
01/03:00am 25.6 SW 4 - 1004.7 - 0.0 - - 10 - - - -
01/02:30am 25.0 SSW 4 - 1005.0 - 0.0 - - 10 - - - -
01/02:00am 25.0 SW 5 - 1005.0 - 0.0 - - 10 - - - -
01/01:30am 25.0 S 5 - 1006.0 - 0.0 - - 9 - - - -
01/01:00am 26.0 SSW 3 - 1006.0 - 0.0 - - 10 - - - -
01/12:30am 26.0 WSW 4 - 1006.0 - 0.0 - - 10 - - - -
01/12:00am 25.0 SSE 2 3 1006.3 - 0.0 - - 10 - - - -
 
Date/Time
WST
Temp

°C
Wind Pressure Rain
since 9am
mm
Weather Cloud Vis
km
Sea
Height
m
Swell
Dir
 
Speed
knots
Gust
knots
hPa Trend Height
m
Period
s
Dir
28/11:30pm 26.0 SW 4 - 1006.0 - 0.0 - - 10 - - - -
28/11:00pm 25.0 S 1 - 1007.0 - 0.0 - - 10 - - - -
28/10:30pm 25.0 SSE 3 - 1007.0 - 0.0 - - 10 - - - -
28/10:00pm 25.0 S 4 - 1007.0 - 0.0 - - 10 - - - -
28/09:30pm 25.0 SE 3 - 1007.0 - 0.0 - - 10 - - - -
28/09:00pm 25.4 S 4 - 1007.2 - 0.0 - Mostly clear 10 - - - -
28/08:30pm 25.0 SSW 6 - 1007.0 - 0.0 - - 10 - - - -
28/08:00pm 25.0 SSW 6 - 1007.0 - 0.0 - - 10 - - - -
28/07:30pm 26.0 SSW 7 - 1007.0 - 0.0 - - 7 - - - -
28/07:00pm 25.0 SW 8 - 1007.0 - 0.0 - - 10 - - - -
28/06:30pm 27.0 S 14 - 1007.0 - 0.0 - Partly cloudy 10 - - - -
28/06:00pm 29.8 WSW 10 - 1005.8 - 0.0 - - 10 - - - -
28/05:30pm 30.0 WSW 8 - 1006.0 - 0.0 - - 10 - - - -
28/05:00pm 30.0 W 9 - 1004.0 - 0.0 - - 10 - - - -
28/04:30pm 30.0 W 9 - 1004.0 - 0.0 - - 10 - - - -
28/04:00pm 31.0 WNW 11 - 1004.0 - 0.0 - - 10 - - - -
28/03:30pm 31.0 WNW 12 - 1004.0 - 0.0 - Partly cloudy 10 - - - -
28/03:00pm 31.3 NW 11 - 1003.7 - 0.0 - - 10 - - - -
28/02:30pm 32.0 WNW 10 - 1004.0 - 0.0 - Partly cloudy 10 - - - -
28/02:00pm 33.0 W 9 - 1005.0 - 0.0 - - 10 - - - -
28/01:30pm 32.0 W 9 - 1005.0 - 0.0 - - 10 - - - -
28/01:00pm 33.0 W 9 - 1005.0 - 0.0 - - 10 - - - -
28/12:30pm 32.0 WNW 11 - 1006.0 - 0.0 - - 10 - - - -
28/12:00pm 32.4 W 10 - 1006.6 - 0.0 - Mostly clear 10 - - - -
28/11:30am 32.0 W 8 - 1007.0 - 0.0 - Partly cloudy 10 - - - -
28/11:00am 32.0 WNW 9 - 1007.0 - 0.0 - Partly cloudy 10 - - - -
28/10:30am 32.0 W 7 - 1008.0 - 0.0 - Partly cloudy 10 - - - -
28/10:00am 31.0 WNW 8 - 1008.0 - 0.0 - Partly cloudy 10 - - - -
28/09:30am 31.0 W 8 - 1008.0 - 0.0 - Partly cloudy 10 - - - -
28/09:18am 31.0 WSW 7 - 1008.0 - 0.0 - Partly cloudy 10 - - - -
28/09:05am 31.0 W 6 - 1008.0 - 0.0 - Partly cloudy 5 - - - -
28/09:00am 30.3 W 6 - 1007.7 - 0.0 - Mostly cloudy 7 - - - -
28/08:30am 30.0 W 5 - 1008.0 - 0.0 - Partly cloudy 10 - - - -
28/08:00am 29.0 SW 5 - 1008.0 - 0.0 - Partly cloudy 10 - - - -
28/07:30am 29.0 SW 4 - 1008.0 - 0.0 - Partly cloudy 10 - - - -
28/07:00am 28.0 S 4 - 1008.0 - 0.0 - - 10 - - - -
28/06:30am 27.0 S 3 - 1007.0 - 0.0 - Partly cloudy 10 - - - -
28/06:00am 26.4 SE 1 - 1006.8 - 0.0 - Partly cloudy 10 - - - -
28/05:30am 26.0 S 4 - 1007.0 - 0.0 - Partly cloudy 9 - - - -
28/05:00am 27.0 ESE 1 - 1006.0 - 0.0 - Partly cloudy 10 - - - -
28/04:30am 27.0 S 1 - 1006.0 - 0.0 - - 10 - - - -
28/04:00am 28.0 W 4 - 1006.0 - 0.0 - - 10 - - - -
28/03:30am 28.0 W 6 - 1005.0 - 0.0 - - 10 - - - -
28/03:00am 27.6 WNW 5 - 1005.4 - 0.0 - - 10 - - - -
28/02:30am 28.0 WNW 4 - 1006.0 - 0.0 - Partly cloudy 10 - - - -
28/02:00am 27.0 WNW 4 - 1006.0 - 0.0 - - 7 - - - -
28/01:37am 28.0 W 5 - 1006.0 - 0.0 - - 10 - - - -
28/01:30am 28.0 W 5 - 1006.0 - 0.0 - - 6 - - - -
28/01:26am 28.0 WNW 5 - 1006.0 - 0.0 - - 5 - - - -
28/01:00am 28.0 W 6 - 1006.0 - 0.0 - Partly cloudy 10 - - - -
28/12:30am 28.0 W 5 - 1007.0 - 0.0 - - 10 - - - -
28/12:00am 27.7 W 5 - 1006.6 - 0.0 - - 10 - - - -
 
Date/Time
WST
Temp

°C
Wind Pressure Rain
since 9am
mm
Weather Cloud Vis
km
Sea
Height
m
Swell
Dir
 
Speed
knots
Gust
knots
hPa Trend Height
m
Period
s
Dir
27/11:30pm 28.0 W 4 - 1007.0 - 0.0 - - 7 - - - -
27/11:00pm 28.0 WSW 4 - 1008.0 - 0.0 - - 10 - - - -
27/10:30pm 28.0 W 4 - 1008.0 - 0.0 - - 10 - - - -
27/10:00pm 28.0 W 3 - 1008.0 - 0.0 - Partly cloudy 10 - - - -
27/09:30pm 28.0 W 3 - 1008.0 - 0.0 - - 10 - - - -
27/09:00pm 28.3 WNW 6 - 1007.5 - 0.0 - Mostly clear 10 - - - -
27/08:30pm 28.0 WNW 6 - 1008.0 - 0.0 - Partly cloudy 10 - - - -
27/08:00pm 28.0 NW 5 - 1007.0 - 0.0 - Partly cloudy 10 - - - -
27/07:30pm 28.0 NW 6 - 1007.0 - 0.0 - - 10 - - - -
27/07:00pm 28.0 NW 7 - 1007.0 - 0.0 - Partly cloudy 10 - - - -
27/06:30pm 28.0 WNW 6 - 1006.0 - 0.0 - - 10 - - - -
27/06:00pm 27.9 W 3 - 1005.7 - 0.0 - - 10 - - - -
27/05:30pm 28.0 WNW 4 - 1005.0 - 0.0 - - 10 - - - -
27/05:00pm 28.0 NW 3 - 1004.0 - 0.0 - - 10 - - - -
27/04:30pm 27.0 NW 4 - 1004.0 - 0.0 - - 10 - - - -
27/04:00pm 27.0 W 3 - 1004.0 - 0.0 - - 10 - - - -
27/03:30pm 27.0 S 4 - 1005.0 - 0.0 - Partly cloudy 10 - - - -
27/03:00pm 26.6 SSW 3 - 1004.9 - 0.0 - - 10 - - - -
27/02:30pm 26.0 S 4 - 1005.0 - 0.0 - - 9 - - - -
27/02:00pm 26.0 SSW 5 - 1005.0 - 0.0 - Partly cloudy 10 - - - -
27/01:30pm 25.0 S 9 - 1006.0 - 0.0 - Partly cloudy 10 - - - -
27/01:00pm 27.0 S 12 - 1006.0 - 0.0 - Partly cloudy 10 - - - -
27/12:30pm 28.0 WNW 5 - 1006.0 - 0.0 - Partly cloudy 10 - - - -
27/12:00pm 29.1 WNW 8 - 1006.4 - 0.0 - Cloudy 10 - - - -
27/11:30am 30.0 WNW 11 - 1007.0 - 0.0 - Partly cloudy 10 - - - -
27/11:00am 31.0 W 7 - 1008.0 - 0.0 - Partly cloudy 10 - - - -
27/10:30am 31.0 WNW 7 - 1008.0 - 0.0 - Partly cloudy 10 - - - -
27/10:00am 31.0 WNW 6 - 1008.0 - 0.0 - Partly cloudy 10 - - - -
27/09:30am 31.0 W 6 - 1008.0 - 0.0 - Partly cloudy 10 - - - -
27/09:00am 29.9 W 7 - 1007.5 - 0.0 - Mostly clear 10 - - - -
27/08:30am 30.0 WNW 6 - 1008.0 - 0.0 - Partly cloudy 10 - - - -
27/08:00am 30.0 W 7 - 1008.0 - 0.0 - - 10 - - - -
27/07:30am 29.0 W 7 - 1007.0 - 0.0 - Partly cloudy 10 - - - -
27/07:00am 29.0 WNW 7 - 1007.0 - 0.0 - - 10 - - - -
27/06:30am 28.0 W 2 - 1007.0 - 0.0 - - 10 - - - -
27/06:00am 27.3 W 3 - 1006.3 - 0.0 - - 10 - - - -
27/05:30am 27.0 CALM 0 - 1006.0 - 0.0 - - 10 - - - -
27/05:00am 27.0 WNW 3 - 1006.0 - 0.0 - - 10 - - - -
27/04:30am 27.0 NW 5 - 1006.0 - 0.0 - - 10 - - - -
27/04:00am 27.0 WNW 3 - 1006.0 - 0.0 - - 10 - - - -
27/03:30am 28.0 NW 3 - 1005.0 - 0.0 - Partly cloudy 10 - - - -
27/03:00am 27.6 WNW 5 - 1004.5 - 0.0 - - 10 - - - -
27/02:30am 28.0 W 5 - 1004.0 - 0.0 - - 10 - - - -
27/02:00am 28.0 W 5 - 1005.0 - 0.0 - Partly cloudy 10 - - - -
27/01:30am 28.0 WNW 6 - 1005.0 - 0.0 - Partly cloudy 10 - - - -
27/01:00am 28.0 WNW 5 - 1006.0 - 0.0 - - 10 - - - -
27/12:30am 28.0 WNW 5 - 1006.0 - 0.0 - - 10 - - - -
27/12:00am 28.0 WNW 5 - 1006.6 - 0.0 - - 10 - - - -
 
Date/Time
WST
Temp

°C
Wind Pressure Rain
since 9am
mm
Weather Cloud Vis
km
Sea
Height
m
Swell
Dir
 
Speed
knots
Gust
knots
hPa Trend Height
m
Period
s
Dir
26/11:30pm 28.0 NW 4 - 1007.0 - 0.0 - Partly cloudy 10 - - - -
26/11:00pm 28.0 WNW 4 - 1008.0 - 0.0 - Partly cloudy 10 - - - -
26/10:30pm 28.0 W 4 - 1008.0 - 0.0 - Partly cloudy 10 - - - -
26/10:00pm 29.0 WNW 6 - 1008.0 - 0.0 - Partly cloudy 10 - - - -
26/09:30pm 29.0 WNW 5 - 1008.0 - 0.0 - - 10 - - - -
26/09:00pm 28.7 W 6 - 1007.9 - 0.0 - Mostly clear 10 - - - -
26/08:30pm 29.0 W 4 - 1008.0 - 0.0 - Cloudy 10 - - - -
26/08:00pm 29.0 WNW 5 - 1007.0 - 0.0 - Partly cloudy 10 - - - -
26/07:30pm 29.0 WNW 6 - 1007.0 - 0.0 - Partly cloudy 10 - - - -
26/07:00pm 29.0 W 5 - 1007.0 - 0.0 - - 10 - - - -
26/06:30pm 29.0 WNW 5 - 1006.0 - 0.0 - - 10 - - - -
26/06:00pm 29.2 WNW 7 - 1005.7 - 0.0 - Mostly clear 10 - - - -
26/05:30pm 30.0 WNW 8 - 1005.0 - 0.0 - - 10 - - - -
26/05:00pm 30.0 WNW 8 - 1004.0 - 0.0 - - 10 - - - -
26/04:30pm 30.0 NW 7 - 1004.0 - 0.0 - Partly cloudy 10 - - - -
26/04:00pm 30.0 NNW 8 - 1004.0 - 0.0 - - 10 - - - -
26/03:30pm 30.0 NNW 9 - 1004.0 - 0.0 - Partly cloudy 10 - - - -
26/03:00pm 31.2 NW 8 - 1003.7 - 0.0 - Cloudy 10 - - - -

Other Formats:

Comma delimited format used in spreadsheet applications
http://www.bom.gov.au/fwo/IDW60701/IDW60701.95101.axf

JavaScript Object Notation format (JSON) in row-major order
http://www.bom.gov.au/fwo/IDW60701/IDW60701.95101.json